Airfield :
LOGIN :

Register | Disclaimer

   EN    FR    IT 

 










Legend :    VFR   Marginal VFR   IFR   Intensive IFR   Very Intensive IFR
Visi :
Ceiling :
>= 8 km
>= 3000ft
5 to 8 km
1000 to 3000 ft
1500m to 5 km
500 to 1000 ft
800 to 1500m
200 to 500 ft
< 800m
< 200 ft
Symbols :   Thunderstorms  Fog  Heavy snow  Heavy precipitations  Wind > 20 kt
SIGMETs :     Misc.  Thunderstorms  Icing  Turbulence  Mountain Waves  Volcanic Ashes






- Airport Elevation : 277 ft
- IATA code : JER


EGJJ - Jersey

CURRENT METAR :
  • 011420Z 07006KT 030V100 9999 FEW016 10/06 Q1026

EXPIRED METARs :
  • 011350Z 09008KT 9999 FEW015 10/06 Q1026
  • 011320Z 10009KT 9999 FEW015 10/06 Q1026
  • 011220Z 12008KT 9999 FEW015 10/08 Q1027
  • 011150Z 10008KT 9999 FEW015 10/09 Q1027

TAF TAF EGJJ
Valid from the 01 at 12:00 until the 01 at 21:00 UTC


011105Z 0112/0121 05006KT 9999 FEW010 SCT020
PROB30
TEMPO 0112/0121 BKN012
ATIS : +44 1534 498 073



MET'MAP, your aeronautical weather chart ! - Copyright ORBIFLY December 2007 - Disclaimer

ORBIFLY MET'MAP TEAM :

Programming & Development : Alexandra Zaïnal
Original concept : Baudouin d'Aumeries
Technical & hardware support : Manuel Goepfert
Assistance : Marc-Olivier Méhu




SOURCES & CREDITS :

   NOAA